Location: Passau
(48.5830°N, 13.4830°E)
Time: 19:39:47
(UTC+02:00)

Envisat - Pass Details

Date: 18 April 2024
Orbit: 762 x 764 km, 98.3° (Epoch: 29 May)

Event Time Altitude Azimuth Distance (km) Brightness Sun altitude
Rises 03:51:59 0° 20° (NNE) 3,241 7.4 -20.0°
Reaches altitude 10° 03:54:29 10° 29° (NNE) 2,309 6.6 -19.8°
Maximum altitude 03:59:10 36° 96° (E) 1,191 4.3 -19.2°
Drops below altitude 10° 04:03:49 10° 163° (SSE) 2,292 5.2 -18.7°
Enters shadow 04:04:06 - 165° (SSE) 2,394 5.3 -18.6°
